Flag for Italy Weather past 2 weeks in Palermo, Italy

Now
88 °F

Sunny.


Feels Like: 96 °F
Forecast: 78 / 90 °F
Wind: 15 mph from Northeast

Location: Palermo / Punta Raisi

Current Time: Jul 29, 2015 at 3:50:40 PM

Latest Report: Jul 29, 2015 at 3:20 PM


Visibility: 10 mi

Pressure: 29.86 "Hg

Humidity: 62%

Dew point: 73 °F

Location of PalermoLocation

Historic Weather in Palermo — Graph

°F

Palermo temperature yesterday

Maximum temperature yesterday: 86 °F (at 12:20 PM)
Minimum temperature yesterday: 77 °F (at 2:50 AM)
Average temperature yesterday: 82 °F

Past Weeks' High & Low Weather Summary

 TemperatureHumidityPressure
High90 °F (Jul 16, 12:50 PM)94% (Jul 16, 2:50 AM)30.09 "Hg (Jul 16, 2:50 AM)
Low75 °F (Jul 15, 3:20 AM)46% (Jul 19, 10:50 AM)29.80 "Hg (Jul 24, 3:20 PM)
Average83 °F72%29.93 "Hg
* Reported Jul 14 2:20 PM — Jul 29 2:50 PM, Palermo, Weather by CustomWeather, © 2015

Note: Actual official high and low records may vary slightly from our data, if they occured in-between our weather recording intervals... More about our weather records

Advertising

Palermo weather history for previous 24 hours

 ConditionsComfort  
Time TempWeatherWind HumidityBarometerVisibility
2:50 PM
Wed, Jul 29
86 °FSunny.14 mph66%29.86 "Hg10 mi
2:20 PM88 °FSunny.13 mph55%29.86 "Hg10 mi
1:50 PM86 °FSunny.12 mph66%29.86 "Hg10 mi
1:20 PM86 °FSunny.10 mph66%29.89 "Hg10 mi
12:50 PM86 °FSunny.8 mph66%29.89 "Hg10 mi
12:20 PM86 °FSunny.8 mph66%29.86 "Hg10 mi
11:50 AM86 °FSunny.7 mph66%29.89 "Hg10 mi
11:20 AM86 °FSunny.7 mph70%29.89 "Hg10 mi
10:50 AM84 °FSunny.7 mph74%29.86 "Hg10 mi
10:20 AM84 °FSunny.5 mph74%29.89 "Hg10 mi
9:50 AM84 °FSunny.5 mph74%29.89 "Hg10 mi
9:20 AM84 °FSunny.6 mph74%29.89 "Hg10 mi
8:50 AM84 °FSunny.3 mph70%29.86 "Hg10 mi
8:20 AM82 °FSunny.2 mph74%29.86 "Hg10 mi
7:50 AM82 °FSunny.3 mph70%29.86 "Hg10 mi
7:20 AM79 °FSunny.5 mph74%29.86 "Hg10 mi
6:50 AM77 °FClear.5 mph79%29.86 "Hg10 mi
6:20 AM77 °FClear.5 mph74%29.86 "Hg10 mi
5:50 AM77 °FClear.5 mph79%29.86 "Hg10 mi
4:50 AM77 °FClear.3 mph79%29.86 "Hg10 mi
4:20 AM77 °FClear.3 mph79%29.86 "Hg10 mi
3:50 AM77 °FClear.3 mph79%29.86 "Hg10 mi
3:20 AM79 °FClear.1 mph79%29.86 "Hg10 mi
2:50 AM81 °FClear.2 mph70%29.86 "Hg10 mi
2:20 AM81 °FClear.3 mph70%29.86 "Hg10 mi
1:50 AM79 °FClear.5 mph74%29.86 "Hg10 mi
1:20 AM81 °FClear.6 mph79%29.86 "Hg10 mi
12:50 AM82 °FClear.8 mph74%29.86 "Hg10 mi
12:20 AM81 °FClear.6 mph79%29.89 "Hg10 mi
11:50 PM
Tue, Jul 28
82 °FClear.9 mph74%29.89 "Hg10 mi
11:20 PM82 °FClear.8 mph79%29.89 "Hg10 mi
10:50 PM82 °FPassing clouds.9 mph74%29.89 "HgN/A
10:20 PM82 °FPassing clouds.9 mph79%29.89 "HgN/A
9:50 PM82 °FPassing clouds.9 mph79%29.89 "HgN/A
9:20 PM84 °FPassing clouds.9 mph74%29.86 "HgN/A
8:50 PM84 °FPassing clouds.8 mph74%29.86 "HgN/A
8:20 PM84 °FPassing clouds.8 mph74%29.86 "HgN/A
7:50 PM84 °FPassing clouds.8 mph74%29.86 "HgN/A
7:20 PM84 °FScattered clouds.8 mph79%29.86 "HgN/A
6:50 PM86 °FPassing clouds.7 mph75%29.83 "HgN/A
6:20 PM84 °FScattered clouds.8 mph79%29.83 "HgN/A
5:50 PM86 °FScattered clouds.7 mph75%29.86 "HgN/A
5:20 PM86 °FScattered clouds.8 mph75%29.86 "HgN/A
4:50 PM84 °FScattered clouds.8 mph84%29.86 "HgN/A
4:20 PM86 °FPassing clouds.9 mph75%29.86 "HgN/A
3:50 PM86 °FPassing clouds.8 mph79%29.86 "HgN/A
3:20 PM86 °FSunny.10 mph79%29.86 "Hg10 mi
Weather by CustomWeather, © 2015

See weather overviewHow to use our weather pages